Time,TemperatureF,DewpointF,PressureIn,WindDirection,WindDirectionDegrees,WindSpeedMPH,WindSpeedGustMPH,Humidity,HourlyPrecipIn,Conditions,Clouds,dailyrainin,SolarRadiationWatts/m^2,SoftwareType,DateUTC
2013-06-13 00:00:00,66.7,60.3,29.76,NNE,16,1.0,4.0,80,0.00,,,0.00,0,Wunderground v.1.15,2013-06-12 21:00:00,
2013-06-13 00:15:00,66.7,60.0,29.76,NNE,16,2.0,2.0,79,0.00,,,0.00,0,Wunderground v.1.15,2013-06-12 21:15:00,
2013-06-13 00:25:00,66.8,60.1,29.76,NNE,16,1.0,1.0,79,0.00,,,0.00,0,Wunderground v.1.15,2013-06-12 21:25:00,
2013-06-13 00:34:00,66.9,60.9,29.76,NNE,16,0.0,3.0,81,0.00,,,0.00,0,Wunderground v.1.15,2013-06-12 21:34:00,
2013-06-13 00:40:00,66.8,60.8,29.76,NNE,16,1.0,1.0,81,0.00,,,0.00,0,Wunderground v.1.15,2013-06-12 21:40:00,
2013-06-13 00:54:00,67.2,60.8,29.77,NNE,16,2.0,2.0,80,0.00,,,0.00,0,Wunderground v.1.15,2013-06-12 21:54:00,
2013-06-13 01:10:00,67.0,61.0,29.77,NNE,16,0.0,0.0,81,0.00,,,0.00,0,Wunderground v.1.15,2013-06-12 22:10:00,
2013-06-13 01:15:00,67.0,61.0,29.77,NNE,16,0.0,0.0,81,0.00,,,0.00,0,Wunderground v.1.15,2013-06-12 22:15:00,
2013-06-13 01:24:00,67.0,61.3,29.77,NNE,16,1.0,1.0,82,0.00,,,0.00,0,Wunderground v.1.15,2013-06-12 22:24:00,
2013-06-13 01:30:00,67.0,61.3,29.77,NNE,16,0.0,1.0,82,0.00,,,0.00,0,Wunderground v.1.15,2013-06-12 22:30:00,
2013-06-13 01:35:00,67.0,61.3,29.76,NNE,16,0.0,2.0,82,0.00,,,0.00,0,Wunderground v.1.15,2013-06-12 22:35:00,
2013-06-13 01:40:00,67.0,61.0,29.76,NNE,16,1.0,4.0,81,0.00,,,0.00,0,Wunderground v.1.15,2013-06-12 22:40:00,
2013-06-13 01:45:00,67.0,61.0,29.76,NNE,16,1.0,3.0,81,0.00,,,0.00,0,Wunderground v.1.15,2013-06-12 22:45:00,
2013-06-13 02:00:00,67.1,61.1,29.76,NNE,16,0.0,1.0,81,0.00,,,0.00,0,Wunderground v.1.15,2013-06-12 23:00:00,
2013-06-13 02:05:00,67.1,61.1,29.76,NNE,16,1.0,1.0,81,0.00,,,0.00,0,Wunderground v.1.15,2013-06-12 23:05:00,
2013-06-13 02:15:00,67.0,61.0,29.76,NNE,16,0.0,1.0,81,0.00,,,0.00,0,Wunderground v.1.15,2013-06-12 23:15:00,
2013-06-13 02:20:00,67.0,61.0,29.76,NNE,16,0.0,1.0,81,0.00,,,0.00,0,Wunderground v.1.15,2013-06-12 23:20:00,
2013-06-13 02:25:00,67.0,61.0,29.76,NNE,16,0.0,1.0,81,0.00,,,0.00,0,Wunderground v.1.15,2013-06-12 23:25:00,
2013-06-13 02:35:00,67.0,61.0,29.76,NNE,16,0.0,0.0,81,0.00,,,0.00,0,Wunderground v.1.15,2013-06-12 23:35:00,
2013-06-13 02:45:00,66.9,60.9,29.75,NNE,16,0.0,1.0,81,0.00,,,0.00,0,Wunderground v.1.15,2013-06-12 23:45:00,
2013-06-13 02:50:00,66.9,60.9,29.75,NNE,16,0.0,1.0,81,0.00,,,0.00,0,Wunderground v.1.15,2013-06-12 23:50:00,
2013-06-13 02:55:00,67.0,61.0,29.75,NNE,16,0.0,1.0,81,0.00,,,0.00,0,Wunderground v.1.15,2013-06-12 23:55:00,
2013-06-13 03:05:00,66.9,60.5,29.75,NNE,16,0.0,0.0,80,0.00,,,0.00,0,Wunderground v.1.15,2013-06-13 00:05:00,
2013-06-13 03:15:00,67.0,60.6,29.75,NNE,16,0.0,2.0,80,0.00,,,0.00,0,Wunderground v.1.15,2013-06-13 00:15:00,
2013-06-13 03:20:00,67.1,60.4,29.75,NNE,16,1.0,3.0,79,0.00,,,0.00,0,Wunderground v.1.15,2013-06-13 00:20:00,
2013-06-13 03:25:00,67.2,59.7,29.75,NNE,16,2.0,3.0,77,0.00,,,0.00,0,Wunderground v.1.15,2013-06-13 00:25:00,
2013-06-13 03:35:00,67.2,59.0,29.75,NNE,16,2.0,6.0,75,0.00,,,0.00,0,Wunderground v.1.15,2013-06-13 00:35:00,
2013-06-13 03:40:00,67.2,59.0,29.75,NNE,16,2.0,3.0,75,0.00,,,0.00,0,Wunderground v.1.15,2013-06-13 00:40:00,
2013-06-13 03:45:00,67.2,59.0,29.75,NNE,16,2.0,3.0,75,0.00,,,0.00,0,Wunderground v.1.15,2013-06-13 00:45:00,
2013-06-13 03:50:00,67.2,59.0,29.75,NNE,16,2.0,2.0,75,0.00,,,0.00,0,Wunderground v.1.15,2013-06-13 00:50:00,
2013-06-13 04:00:00,67.4,59.2,29.74,NNE,16,1.0,1.0,75,0.00,,,0.00,0,Wunderground v.1.15,2013-06-13 01:00:00,
2013-06-13 04:05:00,67.4,59.2,29.74,NNE,16,1.0,1.0,75,0.00,,,0.00,0,Wunderground v.1.15,2013-06-13 01:05:00,
2013-06-13 04:20:00,67.6,59.0,29.74,NNE,16,1.0,3.0,74,0.00,,,0.00,0,Wunderground v.1.15,2013-06-13 01:20:00,
2013-06-13 04:25:00,67.6,59.0,29.74,NNE,16,1.0,3.0,74,0.00,,,0.00,0,Wunderground v.1.15,2013-06-13 01:25:00,
2013-06-13 04:30:00,67.6,58.6,29.75,NNE,16,1.0,2.0,73,0.00,,,0.00,0,Wunderground v.1.15,2013-06-13 01:30:00,
2013-06-13 04:39:00,67.5,58.2,29.75,NNE,16,2.0,2.0,72,0.00,,,0.00,0,Wunderground v.1.15,2013-06-13 01:39:00,
2013-06-13 04:45:00,67.4,58.1,29.75,NNE,16,1.0,3.0,72,0.00,,,0.00,0,Wunderground v.1.15,2013-06-13 01:45:00,
2013-06-13 04:54:00,67.4,57.7,29.75,NNE,16,1.0,1.0,71,0.00,,,0.00,0,Wunderground v.1.15,2013-06-13 01:54:00,
2013-06-13 05:00:00,67.4,57.7,29.75,NNE,16,1.0,1.0,71,0.00,,,0.00,0,Wunderground v.1.15,2013-06-13 02:00:00,
2013-06-13 05:15:00,67.5,57.8,29.75,NNE,16,1.0,3.0,71,0.00,,,0.00,0,Wunderground v.1.15,2013-06-13 02:15:00,
2013-06-13 05:25:00,67.4,57.7,29.75,NNE,16,1.0,3.0,71,0.00,,,0.00,0,Wunderground v.1.15,2013-06-13 02:25:00,
2013-06-13 05:35:00,67.3,57.6,29.75,NNE,16,2.0,2.0,71,0.00,,,0.00,0,Wunderground v.1.15,2013-06-13 02:35:00,
2013-06-13 05:40:00,67.3,57.6,29.76,NNE,16,1.0,1.0,71,0.00,,,0.00,0,Wunderground v.1.15,2013-06-13 02:40:00,
2013-06-13 05:45:00,67.2,57.5,29.76,NNE,16,1.0,1.0,71,0.00,,,0.00,0,Wunderground v.1.15,2013-06-13 02:45:00,
2013-06-13 05:55:00,67.2,57.5,29.76,NNE,16,1.0,3.0,71,0.00,,,0.00,0,Wunderground v.1.15,2013-06-13 02:55:00,
2013-06-13 06:05:00,67.2,57.9,29.76,NNE,16,0.0,1.0,72,0.00,,,0.00,0,Wunderground v.1.15,2013-06-13 03:05:00,
2013-06-13 06:15:00,67.2,57.9,29.76,NNE,16,0.0,0.0,72,0.00,,,0.00,0,Wunderground v.1.15,2013-06-13 03:15:00,
2013-06-13 06:25:00,67.5,57.8,29.76,NNE,16,1.0,1.0,71,0.00,,,0.00,11,Wunderground v.1.15,2013-06-13 03:25:00,
2013-06-13 06:35:00,67.7,58.0,29.76,NNE,16,2.0,3.0,71,0.00,,,0.00,21,Wunderground v.1.15,2013-06-13 03:35:00,
2013-06-13 06:40:00,67.7,58.0,29.76,NNE,16,2.0,3.0,71,0.00,,,0.00,30,Wunderground v.1.15,2013-06-13 03:40:00,
2013-06-13 06:55:00,67.8,57.3,29.76,NNE,16,3.0,7.0,69,0.00,,,0.00,44,Wunderground v.1.15,2013-06-13 03:55:00,
2013-06-13 07:00:00,68.0,57.4,29.76,North,5,4.0,7.0,69,0.00,,,0.00,54,Wunderground v.1.15,2013-06-13 04:00:00,
2013-06-13 07:04:00,68.0,57.4,29.76,North,5,4.0,7.0,69,0.00,,,0.00,63,Wunderground v.1.15,2013-06-13 04:04:00,
2013-06-13 07:15:00,68.1,57.5,29.76,North,5,3.0,4.0,69,0.00,,,0.00,81,Wunderground v.1.15,2013-06-13 04:15:00,
2013-06-13 07:25:00,68.3,57.7,29.76,North,355,4.0,6.0,69,0.00,,,0.00,111,Wunderground v.1.15,2013-06-13 04:25:00,
2013-06-13 07:30:00,68.5,57.5,29.76,North,350,5.0,10.0,68,0.00,,,0.00,128,Wunderground v.1.15,2013-06-13 04:30:00,
2013-06-13 07:45:00,68.6,57.2,29.76,NNW,342,5.0,5.0,67,0.00,,,0.00,113,Wunderground v.1.15,2013-06-13 04:45:00,
2013-06-13 07:55:00,68.5,57.5,29.76,NNW,348,5.0,10.0,68,0.00,,,0.00,91,Wunderground v.1.15,2013-06-13 04:55:00,
2013-06-13 08:15:00,68.2,58.0,29.77,NNW,346,4.0,6.0,70,0.00,,,0.00,107,Wunderground v.1.15,2013-06-13 05:15:00,
2013-06-13 08:25:00,68.0,57.8,29.77,NNW,343,5.0,5.0,70,0.00,,,0.00,97,Wunderground v.1.15,2013-06-13 05:25:00,
2013-06-13 08:35:00,67.9,57.8,29.77,NNW,346,4.0,4.0,70,0.00,,,0.00,102,Wunderground v.1.15,2013-06-13 05:35:00,
2013-06-13 08:45:00,68.2,58.0,29.77,NNW,346,2.0,2.0,70,0.00,,,0.00,162,Wunderground v.1.15,2013-06-13 05:45:00,
2013-06-13 08:50:00,68.3,58.1,29.78,NNW,346,3.0,3.0,70,0.00,,,0.00,195,Wunderground v.1.15,2013-06-13 05:50:00,
2013-06-13 08:55:00,68.5,57.9,29.78,NNW,346,3.0,6.0,69,0.00,,,0.00,308,Wunderground v.1.15,2013-06-13 05:55:00,
2013-06-13 09:15:00,69.2,57.8,29.78,NNW,346,4.0,4.0,67,0.00,,,0.00,193,Wunderground v.1.15,2013-06-13 06:15:00,
2013-06-13 09:30:00,69.1,57.3,29.78,North,355,4.0,6.0,66,0.00,,,0.00,199,Wunderground v.1.15,2013-06-13 06:30:00,
2013-06-13 09:40:00,69.3,56.6,29.78,North,355,4.0,7.0,64,0.00,,,0.00,239,Wunderground v.1.15,2013-06-13 06:40:00,
2013-06-13 09:55:00,69.8,57.1,29.79,North,355,3.0,6.0,64,0.00,,,0.00,236,Wunderground v.1.15,2013-06-13 06:55:00,
2013-06-13 10:10:00,70.3,57.1,29.79,North,360,3.0,5.0,63,0.00,,,0.00,255,Wunderground v.1.15,2013-06-13 07:10:00,
2013-06-13 10:19:00,70.7,57.9,29.79,North,360,3.0,5.0,64,0.00,,,0.00,297,Wunderground v.1.15,2013-06-13 07:19:00,
2013-06-13 10:25:00,70.9,58.1,29.79,North,360,2.0,4.0,64,0.00,,,0.00,281,Wunderground v.1.15,2013-06-13 07:25:00,
2013-06-13 10:30:00,71.1,58.3,29.79,North,360,2.0,6.0,64,0.00,,,0.00,374,Wunderground v.1.15,2013-06-13 07:30:00,
2013-06-13 10:40:00,72.1,58.8,29.80,North,360,2.0,3.0,63,0.00,,,0.00,399,Wunderground v.1.15,2013-06-13 07:40:00,
2013-06-13 10:45:00,72.5,58.3,29.80,North,355,3.0,4.0,61,0.00,,,0.00,976,Wunderground v.1.15,2013-06-13 07:45:00,
2013-06-13 10:50:00,73.0,58.8,29.79,North,355,4.0,5.0,61,0.00,,,0.00,378,Wunderground v.1.15,2013-06-13 07:50:00,
2013-06-13 11:00:00,72.3,58.1,29.80,NNW,344,4.0,5.0,61,0.00,,,0.01,362,Wunderground v.1.15,2013-06-13 08:00:00,
2013-06-13 11:10:00,71.5,58.2,29.80,North,350,6.0,6.0,63,0.00,,,0.01,473,Wunderground v.1.15,2013-06-13 08:10:00,
2013-06-13 11:25:00,72.4,58.2,29.79,NNW,344,4.0,4.0,61,0.00,,,0.01,466,Wunderground v.1.15,2013-06-13 08:25:00,
2013-06-13 11:30:00,72.6,57.9,29.79,NNW,331,3.0,4.0,60,0.00,,,0.01,285,Wunderground v.1.15,2013-06-13 08:30:00,
2013-06-13 11:40:00,72.6,57.9,29.79,NNW,335,5.0,7.0,60,0.00,,,0.01,606,Wunderground v.1.15,2013-06-13 08:40:00,
2013-06-13 11:50:00,73.6,57.9,29.79,North,349,6.0,7.0,58,0.00,,,0.01,780,Wunderground v.1.15,2013-06-13 08:50:00,
2013-06-13 12:10:00,73.4,58.2,29.79,North,349,5.0,7.0,59,0.00,,,0.01,476,Wunderground v.1.15,2013-06-13 09:10:00,
2013-06-13 12:35:00,71.7,58.4,29.80,NNW,344,6.0,6.0,63,0.00,,,0.01,497,Wunderground v.1.15,2013-06-13 09:35:00,
2013-06-13 12:40:00,71.7,58.0,29.80,NNW,344,4.0,6.0,62,0.00,,,0.01,381,Wunderground v.1.15,2013-06-13 09:40:00,
2013-06-13 12:45:00,71.7,58.0,29.80,North,350,5.0,6.0,62,0.00,,,0.01,374,Wunderground v.1.15,2013-06-13 09:45:00,
2013-06-13 12:55:00,72.7,58.5,29.79,North,355,6.0,6.0,61,0.00,,,0.01,1278,Wunderground v.1.15,2013-06-13 09:55:00,
2013-06-13 13:00:00,73.4,58.7,29.79,North,355,4.0,5.0,60,0.00,,,0.01,418,Wunderground v.1.15,2013-06-13 10:00:00,
2013-06-13 13:05:00,73.3,58.6,29.79,North,355,4.0,6.0,60,0.00,,,0.01,234,Wunderground v.1.15,2013-06-13 10:05:00,
2013-06-13 13:10:00,73.3,59.0,29.79,North,355,4.0,4.0,61,0.00,,,0.01,207,Wunderground v.1.15,2013-06-13 10:10:00,
2013-06-13 13:15:00,73.6,58.9,29.79,North,355,4.0,4.0,60,0.00,,,0.01,1238,Wunderground v.1.15,2013-06-13 10:15:00,
2013-06-13 13:20:00,74.1,58.4,29.79,North,349,4.0,8.0,58,0.00,,,0.01,1273,Wunderground v.1.15,2013-06-13 10:20:00,
2013-06-13 13:30:00,73.8,58.1,29.79,North,5,6.0,10.0,58,0.00,,,0.01,626,Wunderground v.1.15,2013-06-13 10:30:00,
2013-06-13 13:35:00,74.4,58.2,29.79,North,5,6.0,6.0,57,0.00,,,0.01,726,Wunderground v.1.15,2013-06-13 10:35:00,
2013-06-13 13:50:00,73.7,58.0,29.79,North,355,6.0,6.0,58,0.00,,,0.01,387,Wunderground v.1.15,2013-06-13 10:50:00,
2013-06-13 13:55:00,73.9,58.7,29.79,North,360,5.0,6.0,59,0.00,,,0.01,381,Wunderground v.1.15,2013-06-13 10:55:00,
2013-06-13 14:00:00,73.5,58.3,29.79,North,9,5.0,7.0,59,0.00,,,0.01,339,Wunderground v.1.15,2013-06-13 11:00:00,
2013-06-13 14:20:00,74.3,58.6,29.79,NNW,346,4.0,4.0,58,0.00,,,0.01,533,Wunderground v.1.15,2013-06-13 11:20:00,
2013-06-13 14:25:00,74.7,58.9,29.79,NNW,346,4.0,6.0,58,0.00,,,0.01,533,Wunderground v.1.15,2013-06-13 11:25:00,
2013-06-13 14:35:00,75.1,58.8,29.79,NNW,348,4.0,4.0,57,0.00,,,0.01,598,Wunderground v.1.15,2013-06-13 11:35:00,
2013-06-13 14:44:00,74.9,59.6,29.79,NNW,336,4.0,5.0,59,0.00,,,0.01,729,Wunderground v.1.15,2013-06-13 11:44:00,
2013-06-13 14:50:00,75.3,59.5,29.79,NNW,336,4.0,4.0,58,0.00,,,0.01,526,Wunderground v.1.15,2013-06-13 11:50:00,
2013-06-13 15:05:00,76.7,58.3,29.79,NNW,333,3.0,3.0,53,0.00,,,0.01,221,Wunderground v.1.15,2013-06-13 12:05:00,
2013-06-13 15:10:00,76.0,58.2,29.79,NNW,333,2.0,3.0,54,0.00,,,0.01,169,Wunderground v.1.15,2013-06-13 12:10:00,
2013-06-13 15:15:00,75.7,58.9,29.79,NNW,333,1.0,1.0,56,0.00,,,0.01,139,Wunderground v.1.15,2013-06-13 12:15:00,
2013-06-13 15:24:00,74.9,57.6,29.79,NNE,33,4.0,12.0,55,0.00,,,0.01,206,Wunderground v.1.15,2013-06-13 12:24:00,
2013-06-13 15:35:00,74.9,57.1,29.79,NE,36,6.0,6.0,54,0.00,,,0.01,346,Wunderground v.1.15,2013-06-13 12:35:00,
2013-06-13 15:45:00,75.3,57.0,29.79,NNE,19,7.0,10.0,53,0.00,,,0.01,671,Wunderground v.1.15,2013-06-13 12:45:00,
2013-06-13 15:55:00,75.9,57.5,29.79,NNE,26,6.0,6.0,53,0.00,,,0.01,403,Wunderground v.1.15,2013-06-13 12:55:00,
2013-06-13 16:00:00,75.3,58.0,29.79,NNE,19,7.0,7.0,55,0.00,,,0.01,591,Wunderground v.1.15,2013-06-13 13:00:00,
2013-06-13 16:15:00,74.5,58.3,29.79,NE,56,8.0,8.0,57,0.00,,,0.01,381,Wunderground v.1.15,2013-06-13 13:15:00,
2013-06-13 16:20:00,74.3,58.1,29.79,NE,52,8.0,12.0,57,0.00,,,0.01,316,Wunderground v.1.15,2013-06-13 13:20:00,
2013-06-13 16:30:00,74.6,57.9,29.79,NE,51,7.0,14.0,56,0.00,,,0.01,380,Wunderground v.1.15,2013-06-13 13:30:00,
2013-06-13 16:35:00,74.7,58.0,29.80,NE,47,6.0,14.0,56,0.00,,,0.01,387,Wunderground v.1.15,2013-06-13 13:35:00,
2013-06-13 16:45:00,75.0,58.2,29.79,ENE,63,4.0,5.0,56,0.00,,,0.01,396,Wunderground v.1.15,2013-06-13 13:45:00,
2013-06-13 16:50:00,75.1,58.3,29.79,ENE,58,5.0,5.0,56,0.00,,,0.01,729,Wunderground v.1.15,2013-06-13 13:50:00,
2013-06-13 16:59:00,75.7,57.4,29.79,ENE,62,5.0,5.0,53,0.00,,,0.01,573,Wunderground v.1.15,2013-06-13 13:59:00,
2013-06-13 17:05:00,76.0,57.6,29.79,ENE,69,4.0,5.0,53,0.00,,,0.01,504,Wunderground v.1.15,2013-06-13 14:05:00,
2013-06-13 17:10:00,75.5,57.2,29.79,NE,49,5.0,5.0,53,0.00,,,0.01,432,Wunderground v.1.15,2013-06-13 14:10:00,
2013-06-13 17:15:00,75.8,56.9,29.79,NNE,19,6.0,6.0,52,0.00,,,0.01,664,Wunderground v.1.15,2013-06-13 14:15:00,
2013-06-13 17:25:00,75.9,57.0,29.79,North,9,5.0,7.0,52,0.00,,,0.01,283,Wunderground v.1.15,2013-06-13 14:25:00,
2013-06-13 17:30:00,75.8,57.4,29.79,North,5,5.0,6.0,53,0.00,,,0.01,281,Wunderground v.1.15,2013-06-13 14:30:00,
2013-06-13 17:45:00,75.6,57.3,29.78,North,9,3.0,5.0,53,0.00,,,0.01,167,Wunderground v.1.15,2013-06-13 14:45:00,
2013-06-13 18:05:00,75.1,56.8,29.79,North,9,3.0,3.0,53,0.00,,,0.01,123,Wunderground v.1.15,2013-06-13 15:05:00,
2013-06-13 18:20:00,74.8,57.0,29.79,North,9,3.0,3.0,54,0.00,,,0.01,483,Wunderground v.1.15,2013-06-13 15:20:00,
2013-06-13 18:30:00,75.7,57.4,29.79,North,9,2.0,5.0,53,0.00,,,0.01,401,Wunderground v.1.15,2013-06-13 15:30:00,
2013-06-13 18:40:00,75.8,57.4,29.79,North,5,3.0,3.0,53,0.00,,,0.01,287,Wunderground v.1.15,2013-06-13 15:40:00,
2013-06-13 18:45:00,76.5,57.6,29.79,North,5,2.0,4.0,52,0.00,,,0.01,357,Wunderground v.1.15,2013-06-13 15:45:00,
2013-06-13 18:50:00,77.1,57.6,29.79,North,5,2.0,2.0,51,0.00,,,0.01,329,Wunderground v.1.15,2013-06-13 15:50:00,
2013-06-13 19:00:00,77.1,57.6,29.78,North,5,1.0,1.0,51,0.00,,,0.01,86,Wunderground v.1.15,2013-06-13 16:00:00,
2013-06-13 19:05:00,76.8,57.3,29.79,North,5,1.0,3.0,51,0.00,,,0.01,70,Wunderground v.1.15,2013-06-13 16:05:00,
2013-06-13 19:20:00,75.5,56.6,29.79,North,5,1.0,1.0,52,0.00,,,0.01,30,Wunderground v.1.15,2013-06-13 16:20:00,
2013-06-13 19:35:00,75.2,56.4,29.79,North,5,2.0,2.0,52,0.00,,,0.01,28,Wunderground v.1.15,2013-06-13 16:35:00,
2013-06-13 19:45:00,74.9,56.6,29.79,North,9,4.0,4.0,53,0.00,,,0.01,28,Wunderground v.1.15,2013-06-13 16:45:00,
2013-06-13 19:55:00,75.1,56.8,29.80,North,9,1.0,6.0,53,0.00,,,0.01,26,Wunderground v.1.15,2013-06-13 16:55:00,
2013-06-13 20:00:00,75.0,56.7,29.79,North,9,2.0,2.0,53,0.00,,,0.01,21,Wunderground v.1.15,2013-06-13 17:00:00,
2013-06-13 20:15:00,74.6,56.9,29.80,North,9,3.0,3.0,54,0.00,,,0.01,11,Wunderground v.1.15,2013-06-13 17:15:00,
2013-06-13 20:20:00,74.6,56.9,29.80,North,9,2.0,3.0,54,0.00,,,0.01,9,Wunderground v.1.15,2013-06-13 17:20:00,
2013-06-13 20:25:00,74.6,57.4,29.80,North,0,1.0,-999.0,55,0.00,,,0.02,9,Wunderground v.1.15,2013-06-13 17:25:00,
2013-06-13 20:30:00,74.6,57.4,29.80,North,0,1.0,-999.0,55,0.00,,,0.02,9,Wunderground v.1.15,2013-06-13 17:30:00,
2013-06-13 20:35:00,74.5,57.3,29.80,North,9,2.0,2.0,55,0.00,,,0.01,0,Wunderground v.1.15,2013-06-13 17:35:00,
2013-06-13 20:40:00,74.4,57.2,29.80,North,0,3.0,-999.0,55,0.00,,,0.02,0,Wunderground v.1.15,2013-06-13 17:40:00,
2013-06-13 20:45:00,74.2,57.0,29.80,North,9,4.0,4.0,55,0.00,,,0.01,0,Wunderground v.1.15,2013-06-13 17:45:00,
2013-06-13 20:50:00,74.2,57.0,29.80,North,9,2.0,4.0,55,0.00,,,0.01,0,Wunderground v.1.15,2013-06-13 17:50:00,
2013-06-13 20:55:00,74.3,57.1,29.80,North,9,1.0,1.0,55,0.00,,,0.01,0,Wunderground v.1.15,2013-06-13 17:55:00,
2013-06-13 21:00:00,74.2,57.0,29.80,North,0,2.0,-999.0,55,0.00,,,0.02,0,Wunderground v.1.15,2013-06-13 18:00:00,
2013-06-13 21:05:00,74.2,57.0,29.80,North,9,2.0,2.0,55,0.00,,,0.01,0,Wunderground v.1.15,2013-06-13 18:05:00,
2013-06-13 21:10:00,74.2,57.0,29.81,North,9,2.0,2.0,55,0.00,,,0.01,0,Wunderground v.1.15,2013-06-13 18:10:00,
2013-06-13 21:15:00,74.2,57.5,29.80,North,0,2.0,-999.0,56,0.00,,,0.02,0,Wunderground v.1.15,2013-06-13 18:15:00,
2013-06-13 21:20:00,74.2,57.0,29.81,North,9,2.0,2.0,55,0.00,,,0.01,0,Wunderground v.1.15,2013-06-13 18:20:00,
2013-06-13 21:25:00,74.2,57.5,29.81,North,0,2.0,-999.0,56,0.00,,,0.02,0,Wunderground v.1.15,2013-06-13 18:25:00,
2013-06-13 21:30:00,74.2,57.5,29.81,North,9,1.0,1.0,56,0.00,,,0.01,0,Wunderground v.1.15,2013-06-13 18:30:00,
2013-06-13 21:35:00,74.2,57.5,29.81,North,0,2.0,-999.0,56,0.00,,,0.02,0,Wunderground v.1.15,2013-06-13 18:35:00,
2013-06-13 21:40:00,74.1,57.9,29.82,North,0,2.0,-999.0,57,0.00,,,0.02,0,Wunderground v.1.15,2013-06-13 18:40:00,
2013-06-13 21:45:00,73.7,57.5,29.82,North,9,3.0,3.0,57,0.00,,,0.01,0,Wunderground v.1.15,2013-06-13 18:45:00,
2013-06-13 21:50:00,74.1,57.9,29.82,North,0,2.0,-999.0,57,0.00,,,0.02,0,Wunderground v.1.15,2013-06-13 18:50:00,
2013-06-13 21:55:00,73.5,57.3,29.82,NNE,23,4.0,-999.0,57,0.00,,,0.02,0,Wunderground v.1.15,2013-06-13 18:55:00,
2013-06-13 22:00:00,73.5,57.3,29.82,NNE,23,4.0,-999.0,57,0.00,,,0.02,0,Wunderground v.1.15,2013-06-13 19:00:00,
2013-06-13 22:05:00,73.5,57.3,29.82,NNE,23,4.0,-999.0,57,0.00,,,0.02,0,Wunderground v.1.15,2013-06-13 19:05:00,
2013-06-13 22:10:00,72.8,60.3,29.83,NNE,23,4.0,-999.0,65,0.00,,,0.02,0,Wunderground v.1.15,2013-06-13 19:10:00,
2013-06-13 22:15:00,72.8,60.3,29.83,NNE,23,4.0,-999.0,65,0.00,,,0.02,0,Wunderground v.1.15,2013-06-13 19:15:00,
2013-06-13 22:20:00,72.8,60.3,29.83,NNE,23,4.0,-999.0,65,0.00,,,0.02,0,Wunderground v.1.15,2013-06-13 19:20:00,
2013-06-13 22:25:00,71.7,60.2,29.84,NE,45,1.0,-999.0,67,0.00,,,0.02,0,Wunderground v.1.15,2013-06-13 19:25:00,
2013-06-13 22:30:00,71.7,60.2,29.84,NE,45,1.0,-999.0,67,0.00,,,0.02,0,Wunderground v.1.15,2013-06-13 19:30:00,
2013-06-13 22:35:00,71.7,60.2,29.84,NE,45,1.0,-999.0,67,0.00,,,0.02,0,Wunderground v.1.15,2013-06-13 19:35:00,
2013-06-13 22:40:00,70.7,60.8,29.84,NE,45,1.0,-999.0,71,0.00,,,0.02,0,Wunderground v.1.15,2013-06-13 19:40:00,
2013-06-13 22:45:00,70.7,60.8,29.84,NE,45,1.0,-999.0,71,0.00,,,0.02,0,Wunderground v.1.15,2013-06-13 19:45:00,
2013-06-13 22:50:00,70.7,60.8,29.84,NE,45,1.0,-999.0,71,0.00,,,0.02,0,Wunderground v.1.15,2013-06-13 19:50:00,
2013-06-13 22:55:00,69.9,61.2,29.84,NE,45,0.0,-999.0,74,0.01,,,0.02,0,Wunderground v.1.15,2013-06-13 19:55:00,
2013-06-13 23:00:00,69.9,61.2,29.84,NE,45,0.0,-999.0,74,0.01,,,0.02,0,Wunderground v.1.15,2013-06-13 20:00:00,
2013-06-13 23:05:00,69.9,61.2,29.84,NE,45,0.0,-999.0,74,0.01,,,0.02,0,Wunderground v.1.15,2013-06-13 20:05:00,
2013-06-13 23:10:00,69.3,61.4,29.84,NE,45,0.0,-999.0,76,0.01,,,0.02,0,Wunderground v.1.15,2013-06-13 20:10:00,
2013-06-13 23:15:00,69.3,61.4,29.84,NE,45,0.0,-999.0,76,0.01,,,0.02,0,Wunderground v.1.15,2013-06-13 20:15:00,
2013-06-13 23:20:00,69.3,61.4,29.84,NE,45,0.0,-999.0,76,0.01,,,0.02,0,Wunderground v.1.15,2013-06-13 20:20:00,
2013-06-13 23:25:00,69.0,60.7,29.84,NE,45,0.0,-999.0,75,0.01,,,0.02,0,Wunderground v.1.15,2013-06-13 20:25:00,
2013-06-13 23:30:00,69.0,60.7,29.84,NE,45,0.0,-999.0,75,0.01,,,0.02,0,Wunderground v.1.15,2013-06-13 20:30:00,
2013-06-13 23:35:00,69.0,60.7,29.84,NE,45,0.0,-999.0,75,0.01,,,0.02,0,Wunderground v.1.15,2013-06-13 20:35:00,
2013-06-13 23:40:00,68.9,60.6,29.84,NE,45,0.0,-999.0,75,0.01,,,0.02,0,Wunderground v.1.15,2013-06-13 20:40:00,
2013-06-13 23:45:00,68.9,60.6,29.84,NE,45,0.0,-999.0,75,0.01,,,0.02,0,Wunderground v.1.15,2013-06-13 20:45:00,
2013-06-13 23:50:00,68.9,60.6,29.84,NE,45,0.0,-999.0,75,0.01,,,0.02,0,Wunderground v.1.15,2013-06-13 20:50:00,
2013-06-13 23:55:00,69.0,60.7,29.84,N/A,-737280,0.0,-999.0,75,0.00,,,0.02,0,Wunderground v.1.15,2013-06-13 20:55:00,